Weather History for PPIZ - April, 2013

Change the Weather History Date:

Monday, April 8, 2013

  Actual Average Record
Temperature  
Mean Temperature -16 °F -  
Max Temperature -8 °F 9 °F 28 °F (1997)
Min Temperature -23 °F 0 °F -27 °F (2014)
Degree Days  
Heating Degree Days 80    
Moisture  
Dew Point -22 °F    
Average Humidity 74    
Maximum Humidity 84    
Minimum Humidity 68    
Precipitation  
Precipitation 0.00 in - - ()
Sea Level Pressure  
Sea Level Pressure 30.12 in    
Wind  
Wind Speed 6 mph (South)    
Max Wind Speed 9 mph    
Max Gust Speed -    
Visibility 9 miles    
Events      
Averages and records for this station are not official NWS values.
T = Trace of Precipitation, MM = Missing Value Source: NWS Daily Summary

Daily Weather History Graph

Daily Weather History Graph

Search for Another Location

Airport or City:

Trip Planner

Search our weather history database for the weather conditions in past years. The results will help you decide how hot, cold, wet, or windy it might be!

Date:

Astronomy

Apr. 08, 2013 Rise Set
Actual Time 7:20 AM AKDT 10:29 PM AKDT
Civil Twilight 6:09 AM AKDT 11:41 PM AKDT
Nautical Twilight 4:02 AM AKDT 1:59 AM AKDT
Astronomical Twilight Sun does not set Sun does not set
Moon 7:00 AM AKDT (4/8) 8:52 PM AKDT (4/8)
Length of Visible Light 17h 31m
Length of Day
15h 08m
Waning Crescent, 3% of the Moon is Illuminated
Apr 8
Waning Crescent
Apr 10
New
Apr 18
First Quarter
Apr 25
Full
May 2
Last Quarter

Hourly Weather History & Observations

Time (AKDT) Temp. Windchill Dew Point Humidity Pressure Visibility Wind Dir Wind Speed Gust Speed Precip Events Conditions
12:56 AM -22.0 °F -35.6 °F -27.9 °F 74% 30.21 in 10.0 mi South 4.6 mph - N/A   Clear
1:56 AM -22.9 °F -40.5 °F -29.9 °F 70% 30.20 in 5.0 mi South 6.9 mph - N/A   Haze
2:56 AM -22.9 °F -42.1 °F -29.9 °F 70% 30.19 in 10.0 mi South 8.1 mph - N/A   Clear
3:56 AM -22.9 °F -43.4 °F -29.9 °F 70% 30.18 in 10.0 mi South 9.2 mph - N/A   Clear
4:28 AM -23.8 °F -43.2 °F -29.2 °F 76% 30.16 in 6.0 mi South 8.1 mph - N/A   Haze
4:56 AM -22.9 °F -43.4 °F -29.9 °F 70% 30.17 in 2.5 mi South 9.2 mph - N/A   Haze
5:56 AM -20.9 °F -41.0 °F -26.9 °F 74% 30.15 in 1.8 mi South 9.2 mph - N/A   Haze
6:09 AM -20.2 °F -40.1 °F -27.4 °F 69% 30.14 in 2.5 mi South 9.2 mph - N/A   Haze
6:20 AM -20.2 °F -38.8 °F -25.6 °F 76% 30.14 in 4.0 mi South 8.1 mph - N/A   Haze
6:35 AM -20.2 °F -38.8 °F -25.6 °F 76% 30.14 in 2.0 mi South 8.1 mph - N/A   Haze
6:46 AM -20.2 °F -38.8 °F -27.4 °F 69% 30.14 in 7.0 mi South 8.1 mph - N/A   Partly Cloudy
6:56 AM -20.9 °F -41.0 °F -27.9 °F 70% 30.16 in 10.0 mi South 9.2 mph - N/A   Partly Cloudy
7:56 AM -22.0 °F -39.4 °F -27.9 °F 74% 30.15 in 10.0 mi South 6.9 mph - N/A   Clear
8:56 AM -22.9 °F -42.1 °F -28.8 °F 74% 30.14 in 10.0 mi South 8.1 mph - N/A   Clear
9:56 AM -20.9 °F -39.7 °F -26.9 °F 74% 30.14 in 10.0 mi South 8.1 mph - N/A   Clear
10:56 AM -19.8 °F - -26.0 °F 73% 30.14 in 10.0 mi Calm Calm - N/A   Clear
11:56 AM -17.9 °F -35.9 °F -24.0 °F 74% 30.13 in 10.0 mi South 8.1 mph - N/A   Clear
12:44 PM -16.6 °F -32.9 °F -22.0 °F 76% 30.11 in 10.0 mi South 6.9 mph - N/A   Partly Cloudy
12:56 PM -15.9 °F -32.1 °F -22.0 °F 74% 30.13 in 10.0 mi South 6.9 mph - N/A   Partly Cloudy
1:56 PM -13.9 °F -29.7 °F -19.8 °F 75% 30.12 in 10.0 mi South 6.9 mph - N/A   Scattered Clouds
2:07 PM -14.8 °F -30.8 °F -18.4 °F 84% 30.10 in 10.0 mi South 6.9 mph - N/A   Mostly Cloudy
2:28 PM -13.0 °F -28.6 °F -18.4 °F 77% 30.10 in 10.0 mi South 6.9 mph - N/A   Scattered Clouds
2:56 PM -11.9 °F -25.7 °F -17.0 °F 78% 30.12 in 10.0 mi South 5.8 mph - N/A   Partly Cloudy
3:03 PM -11.2 °F -24.8 °F -16.6 °F 77% 30.10 in 10.0 mi South 5.8 mph - N/A   Partly Cloudy
3:26 PM -11.2 °F -24.8 °F -16.6 °F 77% 30.09 in 10.0 mi South 5.8 mph - N/A   Mostly Cloudy
3:37 PM -11.2 °F -24.8 °F -16.6 °F 77% 30.09 in 10.0 mi South 5.8 mph - N/A   Mostly Cloudy
3:56 PM -9.4 °F -24.3 °F -16.6 °F 71% 30.09 in 10.0 mi South 6.9 mph - N/A   Mostly Cloudy
4:08 PM -9.4 °F -24.3 °F -16.6 °F 71% 30.09 in 10.0 mi South 6.9 mph - N/A   Mostly Cloudy
4:21 PM -9.4 °F -24.3 °F -16.6 °F 71% 30.08 in 10.0 mi South 6.9 mph - N/A   Mostly Cloudy
4:33 PM -9.4 °F - -16.6 °F 71% 30.08 in 10.0 mi Calm Calm - N/A   Mostly Cloudy
4:47 PM -9.4 °F - -16.6 °F 71% 30.08 in 8.0 mi Calm Calm - N/A   Scattered Clouds
4:56 PM -8.9 °F - -15.0 °F 75% 30.10 in 10.0 mi Calm Calm - N/A   Partly Cloudy
5:56 PM -8.0 °F - -15.9 °F 68% 30.09 in 10.0 mi Calm Calm - N/A   Clear
6:56 PM -9.9 °F - -17.0 °F 71% 30.08 in 10.0 mi Calm Calm - N/A   Clear
7:56 PM -11.9 °F - -17.9 °F 75% 30.07 in 10.0 mi Calm Calm - N/A   Clear
8:56 PM -11.9 °F - -17.9 °F 75% 30.07 in 10.0 mi Calm Calm - N/A   Clear
9:56 PM -13.9 °F - -18.9 °F 78% 30.06 in 10.0 mi Calm Calm - N/A   Clear
10:56 PM -13.9 °F - -18.9 °F 78% 30.06 in 10.0 mi Calm Calm - N/A   Clear
11:56 PM -13.9 °F - -19.8 °F 75% 30.06 in 10.0 mi Calm Calm - N/A   Clear